• In Deutschland
  • Länderverzeichnis
  • Für 7 Tage
  • Wassertemperatur
  • Satellitenkarten
  • Wetterkarte
  • Widgets
  • user-avatar
    Anmelden

    Stündliche Wetter Mainz

    Heute, 12 Dezember, Dienstag

    Zeit Temperatur Niederschläge Wind Luftdruck Luftfeuchtigkeit
    00:00 +4°C° 0 mm 6 m/S 731 mmHg 81%
    01:00 +4°C° 0 mm 6 m/S 731 mmHg 80%
    02:00 +3°C° 0,1 mm 6 m/S 733 mmHg 80%
    03:00 +2°C° 0,1 mm 6 m/S 734 mmHg 79%
    04:00 0°C° 0,1 mm 7 m/S 735 mmHg 78%
    05:00 +1°C° 0 mm 6 m/S 737 mmHg 79%
    06:00 +1°C° 0 mm 6 m/S 739 mmHg 79%
    07:00 +1°C° 0 mm 6 m/S 741 mmHg 79%
    08:00 +1°C° 0 mm 6 m/S 742 mmHg 78%
    09:00 +1°C° 0 mm 5 m/S 744 mmHg 78%
    10:00 +1°C° 0 mm 5 m/S 745 mmHg 77%
    11:00 +1°C° 0 mm 5 m/S 746 mmHg 76%
    12:00 +2°C° 0 mm 5 m/S 747 mmHg 75%
    13:00 +2°C° 0 mm 5 m/S 748 mmHg 73%
    14:00 +2°C° 0 mm 5 m/S 749 mmHg 75%
    15:00 +2°C° 0 mm 5 m/S 749 mmHg 76%
    16:00 +1°C° 0 mm 4 m/S 750 mmHg 77%
    17:00 +1°C° 0 mm 4 m/S 751 mmHg 77%
    18:00 +1°C° 0 mm 4 m/S 751 mmHg 78%
    19:00 +2°C° 0 mm 3 m/S 752 mmHg 78%
    20:00 +1°C° 0 mm 3 m/S 752 mmHg 80%
    21:00 +1°C° 0 mm 3 m/S 753 mmHg 82%
    22:00 0°C° 0 mm 3 m/S 754 mmHg 84%
    23:00 0°C° 0 mm 3 m/S 754 mmHg 86%

    Morgen, 13 Dezember, Mittwoch

    Zeit Temperatur Niederschläge Wind Luftdruck Luftfeuchtigkeit
    00:00 0°C° 0 mm 3 m/S 754 mmHg 88%
    01:00 0°C° 0 mm 3 m/S 754 mmHg 90%
    02:00 0°C° 0 mm 3 m/S 753 mmHg 89%
    03:00 -1°C° 0 mm 4 m/S 753 mmHg 88%
    04:00 0°C° 0 mm 4 m/S 753 mmHg 87%
    05:00 0°C° 0 mm 4 m/S 753 mmHg 86%
    06:00 0°C° 0 mm 4 m/S 752 mmHg 85%
    07:00 0°C° 0 mm 4 m/S 752 mmHg 84%
    08:00 +1°C° 0 mm 5 m/S 751 mmHg 82%
    09:00 +1°C° 0 mm 6 m/S 751 mmHg 80%
    10:00 +1°C° 0 mm 6 m/S 750 mmHg 78%
    11:00 +2°C° 0,3 mm 6 m/S 749 mmHg 77%
    12:00 +2°C° 0,3 mm 7 m/S 748 mmHg 76%
    13:00 +3°C° 0,3 mm 7 m/S 747 mmHg 75%
    14:00 +3°C° 0,7 mm 7 m/S 747 mmHg 77%
    15:00 +3°C° 0,7 mm 7 m/S 746 mmHg 79%
    16:00 +3°C° 0,7 mm 7 m/S 745 mmHg 81%
    17:00 +3°C° 0,4 mm 6 m/S 744 mmHg 82%
    18:00 +3°C° 0,4 mm 6 m/S 744 mmHg 83%
    19:00 +4°C° 0,4 mm 6 m/S 743 mmHg 84%
    20:00 +4°C° 0,1 mm 7 m/S 742 mmHg 83%
    21:00 +4°C° 0,1 mm 7 m/S 741 mmHg 83%
    22:00 +5°C° 0,1 mm 8 m/S 740 mmHg 82%
    23:00 +5°C° 0,7 mm 8 m/S 740 mmHg 82%

    übermorgen, 14 Dezember, Donnerstag

    Zeit Temperatur Niederschläge Wind Luftdruck Luftfeuchtigkeit
    00:00 +5°C° 0,7 mm 8 m/S 739 mmHg 82%
    01:00 +5°C° 0,7 mm 8 m/S 739 mmHg 82%
    02:00 +5°C° 0,9 mm 7 m/S 739 mmHg 81%
    03:00 +5°C° 0,9 mm 7 m/S 739 mmHg 79%
    04:00 +4°C° 0,9 mm 7 m/S 739 mmHg 78%
    05:00 +3°C° 0,1 mm 6 m/S 740 mmHg 75%
    06:00 +2°C° 0,1 mm 6 m/S 741 mmHg 72%
    07:00 +2°C° 0,1 mm 6 m/S 742 mmHg 69%
    08:00 +2°C° 0 mm 5 m/S 742 mmHg 70%
    09:00 +2°C° 0 mm 5 m/S 743 mmHg 70%
    10:00 +2°C° 0 mm 5 m/S 743 mmHg 70%
    11:00 +2°C° 0 mm 5 m/S 743 mmHg 70%
    12:00 +3°C° 0 mm 6 m/S 742 mmHg 70%
    13:00 +4°C° 0 mm 6 m/S 741 mmHg 70%
    14:00 +4°C° 0,7 mm 6 m/S 740 mmHg 73%
    15:00 +5°C° 0,7 mm 5 m/S 739 mmHg 77%
    16:00 +5°C° 0,7 mm 5 m/S 738 mmHg 80%
    17:00 +5°C° 0,2 mm 5 m/S 737 mmHg 81%
    18:00 +5°C° 0,2 mm 5 m/S 736 mmHg 82%
    19:00 +5°C° 0,2 mm 5 m/S 735 mmHg 83%
    20:00 +3°C° 0,2 mm 5 m/S 736 mmHg 81%
    21:00 +3°C° 0,2 mm 5 m/S 736 mmHg 79%
    22:00 +2°C° 0,2 mm 5 m/S 736 mmHg 77%
    23:00 +2°C° 0 mm 5 m/S 737 mmHg 77%

    15 Dezember, Freitag

    Zeit Temperatur Niederschläge Wind Luftdruck Luftfeuchtigkeit
    00:00 +2°C° 0 mm 5 m/S 738 mmHg 78%
    01:00 +1°C° 0 mm 4 m/S 738 mmHg 78%
    02:00 +1°C° 0 mm 5 m/S 738 mmHg 79%
    03:00 +2°C° 0 mm 5 m/S 738 mmHg 80%
    04:00 +2°C° 0 mm 5 m/S 738 mmHg 80%
    05:00 +1°C° 0 mm 5 m/S 738 mmHg 81%
    06:00 +1°C° 0 mm 4 m/S 739 mmHg 83%
    07:00 +1°C° 0 mm 4 m/S 739 mmHg 84%
    08:00 +1°C° 0 mm 4 m/S 739 mmHg 83%
    09:00 +1°C° 0 mm 5 m/S 739 mmHg 82%
    10:00 +2°C° 0 mm 5 m/S 738 mmHg 81%
    11:00 +2°C° 0,4 mm 5 m/S 738 mmHg 80%
    12:00 +2°C° 0,4 mm 6 m/S 738 mmHg 79%
    13:00 +3°C° 0,4 mm 6 m/S 738 mmHg 78%
    14:00 +2°C° 0,6 mm 6 m/S 738 mmHg 80%
    15:00 +2°C° 0,6 mm 5 m/S 738 mmHg 82%
    16:00 +3°C° 0,6 mm 4 m/S 738 mmHg 84%
    17:00 +3°C° 0,2 mm 3 m/S 738 mmHg 86%
    18:00 +2°C° 0,2 mm 3 m/S 739 mmHg 88%
    19:00 +3°C° 0,2 mm 2 m/S 739 mmHg 90%
    20:00 +3°C° 0,1 mm 2 m/S 740 mmHg 90%
    21:00 +2°C° 0,1 mm 3 m/S 741 mmHg 90%
    22:00 +2°C° 0,1 mm 3 m/S 742 mmHg 89%
    23:00 +2°C° 0,1 mm 3 m/S 742 mmHg 88%

    16 Dezember, Samstag

    Zeit Temperatur Niederschläge Wind Luftdruck Luftfeuchtigkeit
    00:00 +2°C° 0,1 mm 3 m/S 743 mmHg 87%
    01:00 0°C° 0,1 mm 4 m/S 744 mmHg 85%
    02:00 +1°C° 0 mm 3 m/S 744 mmHg 86%
    03:00 +1°C° 0 mm 3 m/S 745 mmHg 87%
    04:00 +1°C° 0 mm 3 m/S 745 mmHg 88%
    05:00 +1°C° 0 mm 3 m/S 746 mmHg 88%
    06:00 +1°C° 0 mm 3 m/S 746 mmHg 89%
    07:00 +2°C° 0 mm 2 m/S 746 mmHg 89%
    08:00 +2°C° 0 mm 2 m/S 747 mmHg 89%
    09:00 +2°C° 0 mm 2 m/S 747 mmHg 88%
    10:00 +2°C° 0 mm 2 m/S 747 mmHg 88%
    11:00 +2°C° 0 mm 3 m/S 748 mmHg 86%
    12:00 +3°C° 0 mm 3 m/S 748 mmHg 83%
    13:00 +3°C° 0 mm 3 m/S 748 mmHg 81%
    14:00 +3°C° 0,1 mm 3 m/S 748 mmHg 81%
    15:00 +3°C° 0,1 mm 3 m/S 748 mmHg 82%
    16:00 +1°C° 0,1 mm 4 m/S 748 mmHg 83%
    17:00 +1°C° 0,3 mm 4 m/S 749 mmHg 84%
    18:00 +1°C° 0,3 mm 4 m/S 749 mmHg 84%
    19:00 +1°C° 0,3 mm 4 m/S 750 mmHg 85%
    20:00 0°C° 0,2 mm 4 m/S 750 mmHg 87%
    21:00 +1°C° 0,2 mm 3 m/S 750 mmHg 88%
    22:00 +1°C° 0,2 mm 3 m/S 751 mmHg 90%
    23:00 0°C° 0 mm 3 m/S 751 mmHg 90%

    17 Dezember, Sonntag

    Zeit Temperatur Niederschläge Wind Luftdruck Luftfeuchtigkeit
    00:00 0°C° 0 mm 3 m/S 752 mmHg 90%
    01:00 0°C° 0 mm 3 m/S 752 mmHg 90%
    02:00 -1°C° 0 mm 3 m/S 752 mmHg 90%
    03:00 -1°C° 0 mm 2 m/S 753 mmHg 90%
    04:00 -1°C° 0 mm 2 m/S 753 mmHg 90%
    05:00 -1°C° 0 mm 2 m/S 753 mmHg 90%
    06:00 -1°C° 0 mm 2 m/S 754 mmHg 90%
    07:00 -1°C° 0 mm 2 m/S 754 mmHg 90%
    08:00 0°C° 0 mm 3 m/S 755 mmHg 89%
    09:00 0°C° 0 mm 3 m/S 755 mmHg 88%
    10:00 0°C° 0 mm 3 m/S 756 mmHg 87%
    11:00 +1°C° 0 mm 3 m/S 756 mmHg 86%
    12:00 +1°C° 0 mm 3 m/S 756 mmHg 84%
    13:00 +2°C° 0 mm 3 m/S 756 mmHg 82%
    14:00 +2°C° 0 mm 3 m/S 756 mmHg 83%
    15:00 +1°C° 0 mm 3 m/S 756 mmHg 84%
    16:00 +1°C° 0 mm 3 m/S 756 mmHg 85%
    17:00 +1°C° 0,1 mm 3 m/S 756 mmHg 85%
    18:00 -1°C° 0,1 mm 4 m/S 756 mmHg 85%
    19:00 -1°C° 0,1 mm 4 m/S 756 mmHg 86%
    20:00 -1°C° 0,2 mm 5 m/S 756 mmHg 86%
    21:00 -1°C° 0,2 mm 5 m/S 756 mmHg 85%
    22:00 0°C° 0,2 mm 5 m/S 756 mmHg 85%
    23:00 0°C° 0,1 mm 4 m/S 756 mmHg 85%
    Mehr zeigen